SAS58T EKCH-LKPR

Flight info

Callsign SAS58T
Flight time N/A
Altitude 33000
Route SALLO M44 KOGIM M725 MASOR DCT LUROS M725 HDO DCT GOLOP
Aircraft A320/M-SDE3FGHIRWY/LB1

Departure

Time 2026-05-06 18:39
Airport Copenhagen Kastrup Airport (EKCH)

Arrival

Time N/A
Airport Václav Havel Airport Prague (LKPR)
Time Latitude Longitude Altitude Speed Heading
2026-05-06 18:18 55.62703 12.64166 21 ft 0 kts 32°
2026-05-06 18:30 55.62695 12.64157 24 ft 2 kts 32°
2026-05-06 18:31 55.62681 12.64141 25 ft 2 kts 32°
2026-05-06 18:31 55.62666 12.64125 27 ft 2 kts 32°
2026-05-06 18:31 55.62653 12.64105 25 ft 2 kts 87°
2026-05-06 18:31 55.62653 12.64075 25 ft 2 kts 88°
2026-05-06 18:32 55.62654 12.64057 25 ft 0 kts 121°
2026-05-06 18:34 55.62653 12.64058 25 ft 1 kts 121°
2026-05-06 18:34 55.62648 12.64074 25 ft 2 kts 120°
2026-05-06 18:35 55.62634 12.64114 25 ft 6 kts 123°
2026-05-06 18:35 55.62606 12.64187 24 ft 8 kts 125°
2026-05-06 18:35 55.62560 12.64206 24 ft 8 kts 194°
2026-05-06 18:35 55.62508 12.64251 24 ft 10 kts 128°
2026-05-06 18:36 55.62460 12.64364 24 ft 13 kts 127°
2026-05-06 18:36 55.62383 12.64444 24 ft 15 kts 187°
2026-05-06 18:36 55.62272 12.64394 22 ft 18 kts 197°
2026-05-06 18:36 55.62149 12.64301 25 ft 20 kts 205°
2026-05-06 18:37 55.62025 12.64198 24 ft 18 kts 204°
2026-05-06 18:37 55.61912 12.64102 24 ft 14 kts 206°
2026-05-06 18:37 55.61808 12.64075 24 ft 16 kts 175°
2026-05-06 18:37 55.61703 12.64091 27 ft 13 kts 175°
2026-05-06 18:38 55.61624 12.64066 27 ft 12 kts 212°
2026-05-06 18:38 55.61535 12.63930 27 ft 31 kts 221°
2026-05-06 18:38 55.61191 12.63399 28 ft 98 kts 221°
2026-05-06 18:38 55.60540 12.62389 30 ft 148 kts 222°
2026-05-06 18:39 55.59677 12.61091 324 ft 165 kts 214°
2026-05-06 18:39 55.58813 12.59773 978 ft 166 kts 216°
2026-05-06 18:39 55.57920 12.58394 1516 ft 177 kts 215°
2026-05-06 18:40 55.55715 12.55491 2079 ft 220 kts 200°
2026-05-06 18:40 55.54228 12.54476 2494 ft 242 kts 194°
2026-05-06 18:40 55.52572 12.53524 3149 ft 256 kts 192°
2026-05-06 18:40 55.50804 12.53153 3976 ft 257 kts 169°
2026-05-06 18:41 55.49122 12.54146 4819 ft 257 kts 143°
2026-05-06 18:41 55.47713 12.56117 5668 ft 260 kts 137°
2026-05-06 18:41 55.46313 12.58219 6508 ft 268 kts 136°
2026-05-06 18:41 55.44886 12.60379 7318 ft 273 kts 137°
2026-05-06 18:42 55.43448 12.62549 8125 ft 278 kts 137°
2026-05-06 18:42 55.41958 12.64782 8936 ft 284 kts 139°
2026-05-06 18:42 55.40438 12.67050 9761 ft 288 kts 140°
2026-05-06 18:42 55.38882 12.69365 10317 ft 301 kts 140°
2026-05-06 18:43 55.37230 12.71822 10540 ft 324 kts 140°
2026-05-06 18:43 55.35451 12.74467 10880 ft 340 kts 140°
2026-05-06 18:43 55.33621 12.77187 11525 ft 346 kts 140°
2026-05-06 18:43 55.31787 12.79909 12147 ft 352 kts 141°
2026-05-06 18:44 55.29893 12.82717 12734 ft 359 kts 141°
2026-05-06 18:44 55.27972 12.85563 13457 ft 362 kts 142°
2026-05-06 18:44 55.26026 12.88439 14085 ft 367 kts 142°
2026-05-06 18:44 55.24063 12.91336 14663 ft 371 kts 142°
2026-05-06 18:45 55.22077 12.94266 15307 ft 373 kts 142°
2026-05-06 18:45 55.20104 12.97173 15925 ft 376 kts 141°
2026-05-06 18:45 55.18091 13.00133 16577 ft 377 kts 142°
2026-05-06 18:45 55.16069 13.03096 17178 ft 381 kts 142°
2026-05-06 18:46 55.13951 13.05897 17816 ft 381 kts 153°
2026-05-06 18:46 55.11495 13.07576 18422 ft 379 kts 170°
2026-05-06 18:46 55.08932 13.08495 18978 ft 381 kts 172°
2026-05-06 18:46 55.06312 13.09388 19551 ft 383 kts 172°
2026-05-06 18:47 55.03681 13.10269 20152 ft 386 kts 172°
2026-05-06 18:47 55.01061 13.11143 20711 ft 389 kts 172°
2026-05-06 18:47 54.98382 13.12035 21262 ft 392 kts 172°
2026-05-06 18:47 54.95677 13.12942 21798 ft 395 kts 172°
2026-05-06 18:48 54.92987 13.13848 22315 ft 398 kts 172°
2026-05-06 18:48 54.90247 13.14771 22838 ft 401 kts 172°
2026-05-06 18:48 54.87492 13.15699 23340 ft 404 kts 172°
2026-05-06 18:48 54.84760 13.16625 23779 ft 406 kts 172°
2026-05-06 18:49 54.81968 13.17572 24211 ft 408 kts 172°
2026-05-06 18:49 54.79159 13.18524 24622 ft 411 kts 172°
2026-05-06 18:49 54.76374 13.19463 25021 ft 413 kts 172°
2026-05-06 18:49 54.73536 13.20413 25431 ft 415 kts 172°
2026-05-06 18:50 54.70688 13.21362 25836 ft 416 kts 172°
2026-05-06 18:50 54.67838 13.22309 26254 ft 418 kts 172°
2026-05-06 18:50 54.64963 13.23267 26656 ft 419 kts 171°
2026-05-06 18:50 54.62128 13.24213 27048 ft 421 kts 171°
2026-05-06 18:51 54.59236 13.25174 27424 ft 423 kts 172°
2026-05-06 18:51 54.56340 13.26133 27854 ft 424 kts 171°
2026-05-06 18:51 54.53430 13.27094 28203 ft 426 kts 171°
2026-05-06 18:51 54.50506 13.28063 28604 ft 427 kts 170°
2026-05-06 18:52 54.47616 13.29023 28997 ft 428 kts 170°
2026-05-06 18:52 54.44687 13.29993 29392 ft 429 kts 170°
2026-05-06 18:52 54.41747 13.30964 29745 ft 431 kts 170°
2026-05-06 18:52 54.38798 13.31938 30123 ft 431 kts 170°
2026-05-06 18:53 54.35861 13.32907 30559 ft 429 kts 170°
2026-05-06 18:53 54.32922 13.33874 30959 ft 429 kts 171°
2026-05-06 18:53 54.30016 13.34826 31363 ft 428 kts 171°
2026-05-06 18:53 54.27078 13.35781 31771 ft 427 kts 171°
2026-05-06 18:54 54.24152 13.36732 32214 ft 426 kts 171°
2026-05-06 18:54 54.21284 13.37666 32628 ft 425 kts 172°
2026-05-06 18:54 54.18367 13.38614 32866 ft 426 kts 172°
2026-05-06 18:55 54.12541 13.40509 32912 ft 424 kts 172°
2026-05-06 18:55 54.06766 13.42392 32904 ft 424 kts 172°
2026-05-06 18:56 54.00957 13.44255 32904 ft 424 kts 172°
2026-05-06 18:56 53.95187 13.46106 32899 ft 423 kts 172°
2026-05-06 18:57 53.89392 13.47983 32900 ft 424 kts 172°
2026-05-06 18:57 53.83600 13.49854 32893 ft 424 kts 172°
2026-05-06 18:58 53.77834 13.51703 32889 ft 424 kts 172°
2026-05-06 18:58 53.72016 13.53560 32882 ft 423 kts 173°
2026-05-06 18:59 53.66248 13.55392 32882 ft 423 kts 173°
2026-05-06 18:59 53.60455 13.57227 32799 ft 424 kts 173°
2026-05-06 18:59 53.57625 13.58109 31818 ft 409 kts 173°
2026-05-06 19:00 53.54750 13.59011 29873 ft 433 kts 173°
2026-05-06 19:00 53.51752 13.60070 27865 ft 456 kts 171°